FALCON HEAVY DEB, 54222

Orbit data source: Space-Track

FALCON HEAVY DEB, 54222 is space debris in GEO originally from a launch on Tue, 01 Nov 2022 UTC launched from the Air Force Eastern Test Range (AFETR). Debris objects in space refer to the collection of defunct objects orbiting the Earth. Examples of debris include non-operational satellites, rocket bodies, and fragments generated from explosions, collisions, or faulty payload assembly.

Loading next visibility...
Identifier
54222, 2022-144D
Orbit
GEO
Country
Flag of USUS
Related business
Manufacturer
SpaceX
Mission
Spacecraft
Bus & Motor
Unknown
Mass
~100 kg wet, ~100 kg dry
Launch date (UTC)
2022-11-01 (3 years ago)
Launch vehicle
Unknown
Launch site
Air Force Eastern Test Range (AFETR)
Object type
Payload
Rocket body
Debris
Shape & HBR
Cyl, 1.8 m
Radar Cross Section
7.559 m²

Expand to show TLE details & history
Last TLE update: 1 day ago

TLE from 1 day ago
0 FALCON HEAVY DEB
1 54222U 22144D   25346.31699999  .00000056  00000-0  00000-0 0  9994
2 54222   5.2354  64.5935 0005951 211.8228 147.9532  0.98853285  9808
Epoch: 2025-12-12T07:36Z
TLE epoch observation values (Epoch: 2025-12-12T07:36:28.799Z)
Latitude
-0°
Longitude
-130.97673°
Altitude
36,210.083 km
Speed
3.059 km/s
True Right ascension
04h 17m 36s
True Declination
0° 00' 00"
Sunlit
Object was in daylight at epoch
Visualization orbit readout
Latitude
Unknown
Longitude
Unknown
Altitude
Unknown
Speed
Unknown
Apparent Right ascension
Unknown
Apparent Declination
Unknown
Sunlit
N/A
Visualization observer readout
Local Sidereal Time
07:33:28
Azimuth
Unknown
Elevation
Unknown
Doppler factor
Unknown
Orbital elements
Apogee altitude
36,215.38 km
Perigee altitude
36,164.715 km
Semi-major axis
42,568.184 km
Eccentricity
0.0006
Inclination
5.2354°
RAAN
64.5935°
Arg. of periapsis
211.8228°
True anomaly
147.98936°
Mean anomaly
147.9532°
Eccentric anomaly
147.97128°
Mean motion
0.24712 °/min
Orbital period
1,456.76 mins
BSTAR
0
Loading maneuver chart data...
Computing Atmospheric mass density...
Loading historical data...
Loading historical data...
Loading historical data...
Loading historical data...
Loading historical data...
Loading historical data...
Loading historical data...

Documentation

Showing up to 5 results
|